Regional Weather Roundup
Issued by NWS

Home | Current Version | Previous Version | Graphics & Text | Print | Product List | Glossary On
Versions: 1 2 3 4 5 6 7 8 9 10 11 12 13 14 15 16 17 18 19 20 21 22 23 24 25 26 27 28 29 30 31 32 33 34 35 36 37 38 39 40 41 42 43 44 45 46 47 48 49 50
000
ASUS43 KDMX 211601
RWRIA

WEATHER ROUNDUP FOR IOWA
NATIONAL WEATHER SERVICE DES MOINES IA
1100 AM CDT THU SEP 21 2017

NOTE: "FAIR" INDICATES FEW OR NO CLOUDS BELOW 12,000 FEET WITH NO
SIGNIFICANT WEATHER AND/OR OBSTRUCTIONS TO VISIBILITY.

* - THESE STATIONS ARE NOT NWS STATIONS...THUS NOT UNDER NWS
QUALITY CONTROL.  THEY ALSO DO NOT REPORT WEATHER SUCH
AS PRECIPITATION OR FOG.

IAZ001>003-012>014-020>022-031>034-043>046-211700-
   NORTHWEST IOWA

CITY           SKY/WX    TMP DP  RH WIND       PRES   REMARKS
CARROLL *      PTSUNNY   81  73  78 SE20G28   29.89S HX  85
ORANGE CITY *  MOSUNNY   75  68  78 SE10G23   29.84F
SHELDON *      MOSUNNY   73  64  73 SE15G23   29.85F
SIOUX CITY     MOSUNNY   76  69  79 SE15G23   29.82F
SPENCER        CLOUDY    67  64  90 SE12      29.89F
STORM LAKE *   SUNNY     75  66  73 S14G20    29.88F
$$

IAZ055>058-069>071-079>083-090>094-211700-
   SOUTHWEST IOWA

CITY           SKY/WX    TMP DP  RH WIND       PRES   REMARKS
AUDUBON *      MOSUNNY   79  72  78 S17       29.91S HX  82
CLARINDA *     PTSUNNY   82  73  74 SE12G18   29.91S HX  88
CRESTON *      CLOUDY    73  68  83 SE21G31   29.96F
LAMONI         CLOUDY    71  67  87 SE8G21    29.98S
SHENANDOAH *   SUNNY     84  73  70 S14       29.87F HX  91
$$

IAZ047>049-059>061-072>074-084-211700-
   CENTRAL IOWA

CITY           SKY/WX    TMP DP  RH WIND       PRES   REMARKS
AMES           SUNNY     80  72  76 S18G25    29.93S HX  84
ANKENY *       PTSUNNY   77  70  78 SE16G23   29.95R
CHARITON *     CLOUDY    72  66  83 SE14G23   29.97S
DES MOINES     CLOUDY    75  67  76 S18G30    29.95R
GRINNELL*      MOSUNNY   74  65  74 S9        29.97F
KNOXVILLE *    PTSUNNY   75  66  73 S17G23    29.95S
MARSHALLTOWN   SUNNY     76  68  76 S18G24    29.95R
$$

IAZ004>006-015-016-023>025-035-036-211700-
   NORTH CENTRAL IOWA

CITY           SKY/WX    TMP DP  RH WIND       PRES   REMARKS
ESTHERVILLE    CLOUDY    67  65  93 SE10      29.91S
FORT DODGE *   MOSUNNY   75  68  78 S9        29.92F
MASON CITY     CLOUDY    69  63  81 SE10      29.96F
$$

IAZ007>011-017>019-026>030-037>042-050>054-066-211700-
   NORTHEAST IOWA

CITY           SKY/WX    TMP DP  RH WIND       PRES   REMARKS
CEDAR RAPIDS   CLOUDY    79  59  50 S14G23    29.95R HX  80
CLINTON *      CLOUDY   N/A N/A N/A N6        30.00S
DUBUQUE        PTSUNNY   73  65  75 SE7       30.01F
MONTICELLO *   PTSUNNY   79  61  53 VRB7      29.97F HX  80
OELWEIN *      CLOUDY    77  64  65 S12       29.98S
WATERLOO       CLOUDY    77  63  61 S13       29.94F
$$

IAZ064-065-067-068-078-211700-
   EAST CENTRAL IOWA

CITY           SKY/WX    TMP DP  RH WIND       PRES   REMARKS
DAVENPORT      CLOUDY    74  61  63 SW8       29.99F
IOWA CITY      CLOUDY    79  61  53 S15G22    29.96F HX  80
QUAD CITIES    CLOUDY    76  61  59 SW12G17   29.93F
$$

IAZ062-063-075>077-085>089-095>099-211700-
   SOUTHEAST IOWA

CITY           SKY/WX    TMP DP  RH WIND       PRES   REMARKS
BURLINGTON     LGT RAIN  70  65  84 CALM      30.00F
KEOKUK *       CLOUDY    73  66  78 E6        30.02F
OTTUMWA        CLOUDY    77  65  66 SE17G25   29.96F
WASHINGTON *   CLOUDY    72  64  78 SE15G22   29.96F
$$

ABBREVIATIONS USED IN REMARKS
   TC - TEMPERATURES IN CELSIUS
  WCI - WIND CHILL INDEX
   HX - HEAT INDEX
  VSB - VISIBILITY
$$




USA.gov is the U.S. government's official web portal to all federal, state and local government web resources and services.